Regional Weather Roundup
Issued by NWS

Home | Current Version | Previous Version | Graphics & Text | Print | Product List | Glossary Off
Versions: 1 2 3 4 5 6 7 8 9 10 11 12 13 14 15 16 17 18 19 20 21 22 23 24 25 26 27 28 29 30 31 32 33 34 35 36 37 38 39 40 41 42 43 44 45 46 47 48 49 50

863
ASUS43 KFSD 141802
RWRSD

WEATHER ROUNDUP FOR SOUTH DAKOTA
NATIONAL WEATHER SERVICE SIOUX FALLS SD
1200 PM CST SUN FEB 14 2016

NOTE: "FAIR" INDICATES FEW OR NO CLOUDS BELOW 12,000 FEET WITH NO
SIGNIFICANT WEATHER AND/OR OBSTRUCTIONS TO VISIBILITY.


SDZ001>005-009-010-012>017-141900-
NORTHWEST AND NORTH CENTRAL SOUTH DAKOTA

CITY           SKY/WX    TMP DP  RH WIND       PRES   REMARKS
BUFFALO          N/A     37  31  78 W18       29.71R
FAITH            N/A     37  27  67 W15       29.76R
MOBRIDGE       CLOUDY    35  31  85 SW6       29.72F
$$

SDZ012>016-024>037-041>051-057-063-072>074-141900-
SOUTHWEST AND SOUTH CENTRAL SOUTH DAKOTA

CITY           SKY/WX    TMP DP  RH WIND       PRES   REMARKS
RAPID CTY ARPT CLOUDY    41  28  60 CALM      29.79F
PIERRE         CLOUDY    37  30  75 W10       29.77F
CUSTER         CLOUDY    36  16  44 W15G23    29.77F
ELLSWORTH AFB  CLOUDY    42  27  54 W7        29.78F
PHILIP         CLOUDY    41  32  70 W9        29.80S
PINE RIDGE     PTSUNNY   40  27  59 W12       29.83F
WINNER         FAIR      41  31  67 NW7       29.80S
$$

SDZ004>011-016>023-039-040-141900-
NORTHEAST SOUTH DAKOTA

CITY           SKY/WX    TMP DP  RH WIND       PRES   REMARKS
ABERDEEN       CLOUDY    20  15  81 S13       29.79S WCI   7
WATERTOWN      CLOUDY    16  11  80 S15       29.77F WCI   1
BROOKINGS      FLURRIES  18  12  77 S14       29.80F WCI   4
SISSETON         N/A     16  11  80 S16       29.80F WCI   1
$$

SDZ017-020-022-023-036>040-048>070-141900-
SOUTHEAST SOUTH DAKOTA

CITY           SKY/WX    TMP DP  RH WIND       PRES   REMARKS
SIOUX FALLS    CLOUDY    19  14  81 S9        29.83F WCI   8
HURON          CLOUDY    20  16  84 S8        29.81F WCI  10
MITCHELL       CLOUDY    21  17  84 S7        29.84S WCI  12
YANKTON        CLOUDY    21  16  79 CALM      29.85S
$$

ABBREVIATIONS USED IN REMARKS
   TC - TEMPERATURE IN CELSIUS
  WCI - WIND CHILL INDEX
   HX - HEAT INDEX
  VSB - VISIBILITY





USA.gov is the U.S. government's official web portal to all federal, state and local government web resources and services.